EDT,Max TemperatureF,Mean TemperatureF,Min TemperatureF,Max Dew PointF,MeanDew PointF,Min DewpointF,Max Humidity, Mean Humidity, Min Humidity, Max Sea Level PressureIn, Mean Sea Level PressureIn, Min Sea Level PressureIn, Max VisibilityMiles, Mean VisibilityMiles, Min VisibilityMiles, Max Wind SpeedMPH, Mean Wind SpeedMPH, Max Gust SpeedMPH,PrecipitationIn, CloudCover, Events, WindDirDegrees
2013-5-1,83,66,49,55,52,48,96,66,36,30.22,30.16,30.07,10,10,10,14,5,18,0.00,0,,120
2013-5-2,79,65,51,51,48,44,83,57,30,30.24,30.18,30.13,10,10,10,18,7,24,0.00,1,,108
2013-5-3,80,67,54,53,44,20,77,44,11,30.12,30.07,30.02,10,10,10,17,7,25,0.00,1,,117
2013-5-4,69,61,53,45,40,30,66,46,26,30.10,30.06,30.03,10,10,10,21,10,26,0.00,0,,94
2013-5-5,70,61,51,43,41,34,71,49,27,30.08,30.04,30.00,10,10,10,21,10,26,0.00,0,,83
2013-5-6,70,60,49,46,43,38,77,57,37,30.04,30.01,29.98,10,10,10,16,7,21,0.00,2,,71
2013-5-7,73,61,48,52,47,40,80,62,44,30.04,30.01,29.98,10,10,10,22,7,28,0.00,2,,57
2013-5-8,78,66,53,51,47,44,83,58,32,30.01,29.98,29.94,10,10,10,17,4,22,T,5,,63
2013-5-9,82,67,51,52,48,39,89,56,23,29.98,29.94,29.90,10,10,10,17,5,21,0.02,2,Rain,256
2013-5-10,73,59,45,59,55,40,93,75,57,29.92,29.81,29.74,10,9,2,23,11,28,0.21,7,Rain,246
2013-5-11,59,48,37,45,40,31,83,70,57,29.95,29.87,29.80,10,10,8,23,9,33,T,7,,287
2013-5-12,50,40,30,32,27,21,82,58,33,30.13,30.01,29.94,10,10,10,25,13,33,0.00,4,,276
2013-5-13,57,44,30,28,22,17,85,53,21,30.19,30.15,30.12,10,10,10,20,7,25,0.00,1,,297
2013-5-14,81,61,41,55,40,28,62,46,30,30.12,29.91,29.72,10,10,10,24,9,33,T,3,,196
2013-5-15,87,76,64,57,50,36,66,42,17,29.79,29.71,29.63,10,10,10,26,14,32,T,1,Rain-Thunderstorm,254
2013-5-16,85,69,52,47,41,32,71,44,17,29.98,29.88,29.80,10,10,10,16,4,21,0.00,1,,271
2013-5-17,71,60,48,46,40,35,71,51,31,30.14,30.08,30.00,10,10,10,22,11,25,0.00,0,,68
2013-5-18,77,65,52,50,46,42,77,57,37,30.14,30.09,30.03,10,10,10,15,8,20,0.00,1,,73
2013-5-19,86,70,53,61,56,47,86,63,40,30.03,29.96,29.90,10,10,10,13,4,17,0.00,1,,104
2013-5-20,91,78,64,67,62,58,87,61,34,29.93,29.87,29.80,10,10,9,23,8,33,0.00,1,,200
2013-5-21,88,79,70,64,59,53,79,56,32,29.83,29.78,29.72,10,10,9,26,10,35,0.00,1,,211
2013-5-22,82,73,63,64,60,54,93,65,37,29.76,29.72,29.67,10,8,2,24,9,31,0.26,5,Rain,211
2013-5-23,67,56,45,60,51,41,93,81,68,30.16,29.89,29.72,10,8,2,26,11,31,0.14,7,Rain,317
2013-5-24,60,50,39,41,36,31,92,64,36,30.35,30.27,30.15,10,10,10,17,8,23,0.00,3,,355
2013-5-25,66,51,36,40,35,28,92,59,26,30.41,30.34,30.27,10,8,2,10,2,13,0.00,1,,74
2013-5-26,68,53,38,41,33,25,92,56,20,30.35,30.30,30.23,10,10,10,10,1,15,0.00,0,,95
2013-5-27,54,53,51,52,47,34,96,71,46,30.25,30.12,29.98,10,6,1,15,6,20,0.74,7,Rain,102
2013-5-28,80,67,54,70,59,52,100,81,62,29.97,29.91,29.85,10,6,0,26,8,35,0.22,7,Fog-Rain-Thunderstorm,192
2013-5-29,86,76,66,64,61,58,81,61,40,30.01,29.95,29.86,10,10,10,24,12,31,T,1,,229
2013-5-30,89,77,64,69,64,59,97,69,41,30.08,30.02,29.98,10,8,1,32,7,43,0.54,4,Rain-Thunderstorm,207
2013-5-31,82,73,64,68,65,62,90,74,58,30.01,29.95,29.90,10,10,10,28,9,35,0.48,3,,197